[[{"header":{"parameterUnit":"m.s-1","parameterCategory":1,"la1":30.2991,"la2":30.254,"lo1":-89.0895,"lo2":-89.0444,"dy":0.0017,"dx":0.0017,"nx":28,"ny":28,"refTime":"2024-11-24T03:00:00:Z","depth":0,"parameterNumber":2,"parameterNumberName":"U-component_of_WINDS"},"data":[0,0,0,0,0,0,0,0,0,0,0,0,0,0,0,0,0,0,0,0,0,0,0,0,0,0,0,0,0,0,0,0,0,0,0,0,0,0,0,0,0,0,0,0,0,0,0,0,0,0,0,0,0,0,0,0,0,0,-0.0493,-0.0493,0,-0.05,-0.05,-0.05,-0.0524,-0.0524,-0.0525,-0.0525,-0.0531,-0.053,-0.053,0,0,0,0,0,0,0,0,0,0,0,0,0,-0.0499,-0.0498,-0.0493,-0.0493,-0.0493,-0.05,-0.05,-0.05,-0.0524,-0.0524,-0.0525,-0.0525,-0.0531,-0.0531,-0.053,0,0,0,0,0,0,0,0,0,0,0,0,0,-0.05,-0.0498,-0.0493,-0.0506,-0.0507,-0.05,-0.05,-0.05,-0.0523,-0.0524,-0.0525,-0.0526,-0.0531,-0.0531,-0.053,-0.0511,0,0,-0.0528,-0.0528,0,0,0,0,0,0,0,0,-0.05,-0.05,-0.0504,-0.0505,-0.0506,-0.0512,-0.0504,-0.0504,-0.0523,-0.0517,-0.0525,-0.0526,-0.0524,-0.0524,-0.0523,-0.0511,-0.0511,-0.0528,-0.0528,-0.0528,-0.0528,0,0,0,0,0,0,0,-0.05,-0.0499,-0.0496,-0.0504,-0.0505,-0.0511,-0.0512,-0.0504,-0.0516,-0.0518,-0.0519,-0.052,-0.0525,-0.0524,-0.0524,-0.0511,-0.0528,-0.0528,-0.0528,-0.0527,-0.0481,-0.048,0,0,0,0,0,0,-0.0498,-0.0499,-0.0496,-0.0496,-0.0505,-0.051,-0.0511,-0.0509,-0.0516,-0.0518,-0.0519,-0.0521,-0.0524,-0.0524,-0.0524,-0.05,-0.0528,-0.0527,-0.0527,-0.0482,-0.0481,-0.048,0,0,0,0,0,0,-0.0498,-0.0497,-0.0495,-0.0498,-0.0498,-0.0509,-0.0507,-0.0509,-0.0508,-0.0517,-0.0519,-0.0516,-0.0525,-0.0525,-0.0513,-0.0501,-0.0527,-0.0527,-0.0483,-0.0482,-0.048,-0.0453,0,0,0,0,0,0,-0.0498,-0.0497,-0.0491,-0.0498,-0.0498,-0.0485,-0.0506,-0.0508,-0.0507,-0.051,-0.0515,-0.0517,-0.0526,-0.0514,-0.0513,-0.05,-0.0526,-0.0484,-0.0482,-0.0481,-0.0455,-0.0451,-0.0448,0,0,0,0,0,-0.0498,-0.0483,-0.049,-0.049,-0.049,-0.0485,-0.0485,-0.0495,-0.0506,-0.0499,-0.0505,-0.0516,-0.0503,-0.0513,-0.0512,-0.0499,-0.0485,-0.0483,-0.0481,-0.0457,-0.0452,-0.0448,0,0,0,0,0,0,-0.0474,-0.0484,-0.0492,-0.0479,-0.0481,-0.0489,-0.048,-0.049,-0.0488,-0.0491,-0.0504,-0.0505,-0.0491,-0.0494,-0.0505,-0.0479,-0.0496,-0.0493,-0.0478,-0.0473,-0.0469,-0.0468,-0.0526,0,0,0,0,0,-0.0467,-0.0462,-0.0471,-0.0459,-0.0459,-0.0469,-0.0467,-0.0475,-0.0478,-0.0478,-0.0483,-0.0484,-0.048,-0.0477,-0.0474,-0.0456,-0.0457,-0.0447,-0.0443,-0.044,-0.0437,-0.0426,-0.0421,-0.0473,-0.0473,-0.0473,0,0,-0.0453,-0.0458,-0.0454,-0.0454,-0.0456,-0.045,-0.047,-0.0463,-0.0458,-0.0477,-0.0466,-0.047,-0.0472,-0.0457,-0.0451,-0.0459,-0.0423,-0.0437,-0.0434,-0.0434,-0.0423,-0.0418,-0.0414,-0.0472,-0.0472,-0.0472,0,0,-0.0423,-0.0427,-0.0416,-0.0418,-0.0421,-0.0428,-0.0425,-0.0431,-0.0434,-0.0424,-0.0437,-0.0432,-0.0424,-0.0425,-0.0424,-0.0393,-0.0403,-0.0392,-0.0371,-0.036,-0.0356,-0.0352,-0.034,-0.0335,-0.0389,-0.0389,-0.0389,0,-0.0405,-0.0397,-0.0409,-0.0401,-0.04,-0.0417,-0.0405,-0.0406,-0.0408,-0.0406,-0.0416,-0.0406,-0.0409,-0.0393,-0.0385,-0.0385,-0.0381,-0.0391,-0.0356,-0.0352,-0.0349,-0.0337,-0.0333,-0.0388,-0.0388,-0.0388,-0.0388,0,-0.0373,-0.0367,-0.0358,-0.0359,-0.0357,-0.0347,-0.0357,-0.0353,-0.0361,-0.0366,-0.0355,-0.0358,-0.0355,-0.0352,-0.0361,-0.0337,-0.0342,-0.0354,-0.037,-0.0342,-0.0331,-0.0327,-0.0386,-0.0386,-0.0387,-0.0387,0,0,-0.0329,-0.0336,-0.0332,-0.0332,-0.0336,-0.0332,-0.0322,-0.0319,-0.0315,-0.0315,-0.0306,-0.0299,-0.0309,-0.0308,-0.0316,-0.0307,-0.028,-0.0319,-0.0319,-0.031,-0.0253,-0.0243,-0.0238,-0.0287,-0.0286,-0.0286,-0.0252,0,-0.03,-0.0284,-0.0294,-0.0276,-0.027,-0.0285,-0.0276,-0.0277,-0.0282,-0.0276,-0.0281,-0.0275,-0.029,-0.0289,-0.0281,-0.0285,-0.0268,-0.0288,-0.0278,-0.0277,-0.0275,-0.0232,-0.0223,-0.0191,-0.0248,-0.0247,-0.0247,0,-0.0264,-0.0262,-0.0243,-0.0247,-0.0245,-0.0237,-0.0234,-0.0229,-0.023,-0.0234,-0.0232,-0.0242,-0.0231,-0.0248,-0.0233,-0.0246,-0.0242,-0.0243,-0.0242,-0.0241,-0.0259,-0.0228,-0.0181,-0.0175,-0.024,-0.0241,-0.0241,0,-0.0231,-0.0224,-0.0212,-0.0212,-0.0216,-0.021,-0.0211,-0.0213,-0.021,-0.0207,-0.0205,-0.0202,-0.0199,-0.0195,-0.0203,-0.0215,-0.0186,-0.0204,-0.0188,-0.0188,-0.018,-0.018,-0.013,-0.018,-0.018,-0.018,-0.0181,0,-0.0197,-0.0184,-0.0197,-0.0189,-0.0175,-0.0187,-0.0172,-0.0175,-0.0176,-0.0168,-0.0182,-0.0174,-0.0186,-0.0179,-0.0185,-0.017,-0.017,-0.0171,-0.0173,-0.0169,-0.0169,-0.0166,-0.0168,-0.0179,-0.0179,-0.018,-0.018,0,-0.0158,-0.0166,-0.0153,-0.0158,-0.0159,-0.0148,-0.0152,-0.0145,-0.015,-0.014,-0.0138,-0.0145,-0.0138,-0.0146,-0.0139,-0.0143,-0.0122,-0.0128,-0.0122,-0.0123,-0.0106,-0.0106,-0.0051,-0.0043,-0.0099,-0.0099,-0.0098,0,-0.0135,-0.0126,-0.0129,-0.0125,-0.0126,-0.0119,-0.0116,-0.0126,-0.0122,-0.0122,-0.0114,-0.0107,-0.0102,-0.0089,-0.0093,-0.0087,-0.0092,-0.0073,-0.0091,-0.0087,-0.009,-0.009,-0.0088,-0.0069,-0.0068,-0.0068,-0.0067,0,-0.0093,-0.0097,-0.0092,-0.0088,-0.0084,-0.0081,-0.0079,-0.0075,-0.0086,-0.008,-0.0072,-0.0069,-0.0061,-0.0054,-0.0049,-0.005,-0.0059,-0.0062,-0.0057,-0.0053,-0.0049,-0.0049,-0.011,-0.0063,-0.0063,-0.0063,-0.0064,-0.0064,-0.006,-0.0052,-0.0053,-0.0046,-0.0046,-0.0044,-0.0036,-0.004,-0.0034,-0.0028,-0.0035,-0.0025,-0.0024,-0.0019,-0.0018,-0.001,-0.0018,-0.0012,-0.001,-0.0008,-0.0004,-0.0051,-0.0009,-0.0009,-0.0009,-0.0009,-0.001,0,-0.0017,-0.0018,-0.0012,-0.0009,-0.0004,-0.0014,-0.0012,-0.0007,0.0002,0.0003,0.0009,0.0019,0.0026,0.0023,0.003,0.0037,0.0033,0.0039,0.0039,0.004,0.0001,-0.0002,0.0043,0.0043,0.0043,0.0043,0.0043,0.0043,0.0006,0.002,0.0016,0.0031,0.003,0.0039,0.0042,0.0044,0.0045,0.0057,0.0063,0.0061,0.0061,0.0067,0.0074,0.0073,0.0077,0.0086,0.0083,0.0047,0.0042,0.0037,0.0034,0.0086,0.0086,0.0121,0.0122,0.0122]},{"header":{"parameterUnit":"m.s-1","parameterCategory":1,"la1":30.2991,"la2":30.254,"lo1":-89.0895,"lo2":-89.0444,"dy":0.0017,"dx":0.0017,"nx":28,"ny":28,"refTime":"2024-11-24T03:00:00:Z","depth":0,"parameterNumber":3,"parameterNumberName":"V-component_of_WINDS"},"data":[0,0,0,0,0,0,0,0,0,0,0,0,0,0,0,0,0,0,0,0,0,0,0,0,0,0,0,0,0,0,0,0,0,0,0,0,0,0,0,0,0,0,0,0,0,0,0,0,0,0,0,0,0,0,0,0,0,0,1.9747,1.9747,0,1.972,1.972,1.972,1.9716,1.9716,1.9716,1.9716,1.9688,1.9687,1.9686,0,0,0,0,0,0,0,0,0,0,0,0,0,1.9797,1.9796,1.9747,1.9747,1.9747,1.972,1.972,1.9719,1.9716,1.9716,1.9716,1.9717,1.9688,1.9687,1.9686,0,0,0,0,0,0,0,0,0,0,0,0,0,1.9773,1.9796,1.9747,1.9742,1.9741,1.972,1.972,1.9719,1.9716,1.9716,1.9716,1.9717,1.9688,1.9687,1.9685,1.9668,0,0,1.9681,1.968,0,0,0,0,0,0,0,0,1.9775,1.9771,1.9743,1.9742,1.9741,1.9722,1.9727,1.9702,1.9716,1.9725,1.9716,1.9717,1.9699,1.9696,1.969,1.9667,1.9666,1.9681,1.968,1.9679,1.9679,0,0,0,0,0,0,0,1.9776,1.9773,1.9737,1.9742,1.9741,1.9741,1.9738,1.9722,1.971,1.9724,1.9724,1.9721,1.9698,1.9692,1.969,1.9665,1.9681,1.9679,1.9678,1.9678,1.963,1.963,0,0,0,0,0,0,1.9779,1.9774,1.9737,1.9736,1.9759,1.974,1.9736,1.9728,1.971,1.9708,1.9721,1.9721,1.9694,1.9691,1.9689,1.9669,1.9679,1.9678,1.9677,1.9631,1.963,1.963,0,0,0,0,0,0,1.978,1.9776,1.9739,1.9755,1.975,1.9738,1.9729,1.9727,1.972,1.9707,1.9705,1.9716,1.9694,1.9691,1.9674,1.9668,1.9677,1.9676,1.9631,1.963,1.963,1.963,0,0,0,0,0,0,1.9781,1.9776,1.9769,1.9755,1.9749,1.9724,1.9728,1.9726,1.9718,1.9718,1.9703,1.97,1.9694,1.9677,1.9673,1.9666,1.9674,1.9631,1.9631,1.963,1.963,1.9629,1.9629,0,0,0,0,0,1.9783,1.9769,1.9769,1.9764,1.974,1.9724,1.9721,1.9714,1.9717,1.9711,1.9703,1.9701,1.967,1.9675,1.9671,1.9664,1.9632,1.9631,1.963,1.9631,1.963,1.9629,0,0,0,0,0,0,1.9782,1.9767,1.9766,1.9747,1.9737,1.9723,1.9714,1.9713,1.9701,1.9701,1.9694,1.969,1.9675,1.9668,1.9673,1.9648,1.9651,1.9649,1.9653,1.9652,1.9651,1.9653,1.9673,0,0,0,0,0,1.9779,1.9767,1.9755,1.9739,1.9735,1.9725,1.9718,1.9714,1.9703,1.9699,1.9689,1.9679,1.9667,1.9659,1.9647,1.963,1.9627,1.9623,1.9622,1.9622,1.962,1.9613,1.9611,1.9627,1.9627,1.9627,0,0,1.9774,1.9764,1.9757,1.9739,1.9731,1.9719,1.9722,1.9708,1.97,1.9696,1.9681,1.9674,1.9662,1.9646,1.9638,1.9639,1.9616,1.9621,1.962,1.9619,1.9612,1.961,1.9609,1.9627,1.9627,1.9627,0,0,1.9758,1.9749,1.9736,1.9729,1.9717,1.9711,1.9708,1.9695,1.9691,1.9676,1.9674,1.9664,1.9643,1.9635,1.9628,1.9614,1.9612,1.961,1.9605,1.9598,1.9597,1.9596,1.9592,1.9591,1.9609,1.9609,1.9609,0,1.9752,1.9735,1.9729,1.9717,1.9711,1.9708,1.9696,1.9689,1.9673,1.9669,1.9671,1.9646,1.9638,1.9621,1.9618,1.9612,1.9609,1.9611,1.9598,1.9597,1.9595,1.9592,1.959,1.9609,1.9609,1.9609,1.9609,0,1.9729,1.9718,1.9709,1.9696,1.9688,1.9675,1.9669,1.9662,1.966,1.9655,1.964,1.9631,1.9618,1.9614,1.9611,1.9597,1.9599,1.9599,1.9602,1.9594,1.959,1.9589,1.9609,1.9609,1.9609,1.9609,0,0,1.9709,1.9696,1.9693,1.9688,1.9676,1.9667,1.9656,1.9645,1.964,1.963,1.9621,1.9605,1.9607,1.9599,1.9596,1.9589,1.9581,1.9591,1.9591,1.959,1.9567,1.9567,1.9566,1.958,1.958,1.958,1.9569,0,1.9693,1.9673,1.967,1.9653,1.9643,1.9642,1.9633,1.9625,1.9621,1.9612,1.9608,1.9597,1.9599,1.9595,1.9589,1.9583,1.9576,1.9584,1.9573,1.9572,1.9576,1.9563,1.9563,1.9553,1.9567,1.9567,1.9567,0,1.9671,1.9662,1.9645,1.9637,1.9633,1.9624,1.9615,1.9607,1.9599,1.9596,1.959,1.9588,1.9577,1.9582,1.9568,1.9574,1.9569,1.9566,1.9566,1.9564,1.9569,1.9562,1.9549,1.9548,1.9564,1.9564,1.9565,0,1.966,1.9644,1.9632,1.9628,1.9618,1.9613,1.9608,1.9601,1.9595,1.9587,1.9584,1.9575,1.957,1.9563,1.956,1.9563,1.9547,1.955,1.9545,1.9546,1.9541,1.9542,1.9528,1.9538,1.9538,1.9538,1.9538,0,1.9642,1.9632,1.9628,1.962,1.9609,1.9606,1.9595,1.9591,1.9585,1.9578,1.9577,1.957,1.9565,1.9558,1.9555,1.9545,1.9543,1.9541,1.954,1.9541,1.9542,1.9538,1.9539,1.9538,1.9538,1.9538,1.9538,0,1.9628,1.9624,1.9612,1.9605,1.9603,1.9595,1.9589,1.9583,1.958,1.957,1.9568,1.9563,1.9555,1.9551,1.954,1.9538,1.9527,1.9527,1.953,1.953,1.9526,1.9526,1.9509,1.9507,1.9518,1.9518,1.9518,0,1.9617,1.9609,1.9602,1.9598,1.9594,1.9586,1.9581,1.9578,1.9573,1.9565,1.956,1.9552,1.9546,1.9533,1.9528,1.9521,1.952,1.9515,1.9519,1.9521,1.9522,1.9522,1.9522,1.9514,1.9514,1.9514,1.9514,0,1.9598,1.9598,1.9591,1.9584,1.9578,1.9572,1.9567,1.9563,1.956,1.9555,1.9547,1.9542,1.9532,1.9525,1.9518,1.9514,1.9514,1.9513,1.9512,1.9512,1.9515,1.9514,1.9529,1.9513,1.9513,1.9513,1.9513,1.9513,1.9586,1.958,1.9575,1.9568,1.9564,1.9559,1.9554,1.9551,1.9544,1.9537,1.9536,1.9528,1.9523,1.9513,1.951,1.9504,1.9505,1.9503,1.9502,1.9502,1.9502,1.9516,1.9503,1.9503,1.9503,1.9503,1.9503,0,1.9568,1.9566,1.9559,1.9553,1.9547,1.9549,1.9544,1.9539,1.9533,1.9528,1.9522,1.9515,1.9508,1.9504,1.9498,1.9494,1.9494,1.9493,1.9493,1.9493,1.9501,1.9503,1.9493,1.9493,1.9493,1.9493,1.9493,1.9493,1.9558,1.9549,1.9549,1.9538,1.9536,1.9528,1.9526,1.9522,1.9519,1.951,1.9505,1.9503,1.9499,1.9493,1.9488,1.9487,1.9485,1.9484,1.9483,1.9491,1.9492,1.9493,1.9495,1.9483,1.9483,1.9476,1.9476,1.9475]}]]